[[{"header":{"parameterUnit":"m.s-1","parameterCategory":1,"la1":30.2991,"la2":30.254,"lo1":-89.0895,"lo2":-89.0444,"dy":0.0017,"dx":0.0017,"nx":28,"ny":28,"refTime":"2026-02-01T09:00:00:Z","depth":0,"parameterNumber":2,"parameterNumberName":"U-component_of_WINDS"},"data":[0,0,0,0,0,0,0,0,0,0,0,0,0,0,0,0,0,0,0,0,0,0,0,0,0,0,0,0,0,0,0,0,0,0,0,0,0,0,0,0,0,0,0,0,0,0,0,0,0,0,0,0,0,0,0,0,0,0,1.858,1.858,0,1.8596,1.8596,1.8596,1.8597,1.8597,1.8597,1.8597,1.8612,1.8612,1.8613,0,0,0,0,0,0,0,0,0,0,0,0,0,1.8552,1.8553,1.858,1.858,1.858,1.8595,1.8596,1.8596,1.8597,1.8597,1.8597,1.8597,1.8611,1.8612,1.8613,0,0,0,0,0,0,0,0,0,0,0,0,0,1.8566,1.8553,1.858,1.8583,1.8584,1.8595,1.8596,1.8596,1.8598,1.8597,1.8597,1.8597,1.8611,1.8612,1.8613,1.8622,0,0,1.8615,1.8616,0,0,0,0,0,0,0,0,1.8565,1.8567,1.8582,1.8583,1.8583,1.8594,1.8591,1.8605,1.8598,1.8592,1.8597,1.8597,1.8606,1.8607,1.8611,1.8623,1.8624,1.8615,1.8616,1.8616,1.8616,0,0,0,0,0,0,0,1.8564,1.8566,1.8586,1.8583,1.8583,1.8584,1.8585,1.8594,1.86,1.8593,1.8593,1.8595,1.8606,1.861,1.8611,1.8624,1.8615,1.8616,1.8617,1.8617,1.8646,1.8647,0,0,0,0,0,0,1.8562,1.8565,1.8586,1.8587,1.8573,1.8584,1.8586,1.8591,1.86,1.8601,1.8595,1.8595,1.8609,1.861,1.8611,1.8624,1.8616,1.8617,1.8617,1.8646,1.8647,1.8647,0,0,0,0,0,0,1.8562,1.8564,1.8585,1.8576,1.8579,1.8585,1.8591,1.8591,1.8595,1.8602,1.8603,1.8597,1.8608,1.861,1.862,1.8624,1.8617,1.8618,1.8646,1.8646,1.8647,1.8648,0,0,0,0,0,0,1.8561,1.8564,1.8568,1.8576,1.8579,1.8593,1.8591,1.8592,1.8597,1.8596,1.8604,1.8605,1.8608,1.8619,1.8621,1.8625,1.8619,1.8645,1.8646,1.8647,1.8648,1.8649,1.8649,0,0,0,0,0,1.856,1.8567,1.8568,1.857,1.8584,1.8593,1.8595,1.8599,1.8597,1.8601,1.8605,1.8605,1.8624,1.862,1.8622,1.8627,1.8645,1.8646,1.8647,1.8647,1.8649,1.8649,0,0,0,0,0,0,1.8558,1.8568,1.8569,1.8579,1.8585,1.8594,1.8598,1.86,1.8606,1.8606,1.861,1.8612,1.8622,1.8625,1.8621,1.8637,1.8634,1.8635,1.8634,1.8635,1.8636,1.8635,1.8619,0,0,0,0,0,1.8559,1.8566,1.8574,1.8582,1.8586,1.8592,1.8596,1.8598,1.8605,1.8608,1.8613,1.8619,1.8627,1.8631,1.8638,1.8649,1.8651,1.8653,1.8654,1.8655,1.8656,1.8662,1.8663,1.8649,1.8649,1.8649,0,0,1.856,1.8566,1.8571,1.8582,1.8587,1.8595,1.8594,1.8601,1.8607,1.8609,1.8618,1.8623,1.863,1.8641,1.8645,1.8644,1.866,1.8656,1.8656,1.8657,1.8663,1.8664,1.8665,1.865,1.865,1.8649,0,0,1.8566,1.8572,1.8579,1.8585,1.8594,1.8598,1.86,1.8609,1.8612,1.8622,1.8624,1.863,1.8643,1.8648,1.8653,1.8664,1.8664,1.8666,1.867,1.8676,1.8677,1.8678,1.8682,1.8683,1.8667,1.8667,1.8667,0,1.8567,1.8578,1.8583,1.8591,1.8596,1.8599,1.8607,1.8613,1.8623,1.8626,1.8625,1.8642,1.8647,1.8659,1.8662,1.8665,1.8668,1.8664,1.8677,1.8678,1.8679,1.8682,1.8684,1.8667,1.8667,1.8667,1.8667,0,1.8578,1.8587,1.8592,1.8602,1.8608,1.8616,1.8622,1.8628,1.863,1.8635,1.8646,1.8652,1.8661,1.8665,1.8667,1.8677,1.8676,1.8676,1.8673,1.868,1.8684,1.8685,1.8667,1.8667,1.8667,1.8667,0,0,1.8582,1.8597,1.8599,1.8604,1.8614,1.8621,1.8629,1.8639,1.8644,1.8651,1.8658,1.867,1.867,1.8675,1.8678,1.8684,1.8692,1.8683,1.8683,1.8684,1.8705,1.8705,1.8706,1.8693,1.8694,1.8694,1.8704,0,1.859,1.8605,1.861,1.8623,1.8631,1.8635,1.8642,1.865,1.8655,1.8662,1.8668,1.8676,1.8675,1.8679,1.8684,1.869,1.8696,1.8689,1.87,1.87,1.8697,1.8708,1.8708,1.8717,1.8706,1.8706,1.8706,0,1.86,1.8608,1.8622,1.8633,1.8636,1.8643,1.8653,1.866,1.8669,1.8672,1.8679,1.8682,1.8691,1.8689,1.8702,1.8697,1.8702,1.8705,1.8706,1.8706,1.8703,1.8708,1.872,1.8721,1.8708,1.8708,1.8708,0,1.8601,1.8616,1.8626,1.8631,1.8644,1.8648,1.8654,1.8663,1.8668,1.8677,1.8681,1.869,1.8696,1.8703,1.8709,1.8706,1.8722,1.8719,1.8724,1.8724,1.8726,1.8726,1.8739,1.8731,1.8731,1.8731,1.8731,0,1.8609,1.8617,1.8627,1.8634,1.8643,1.865,1.8659,1.8665,1.8673,1.8681,1.8685,1.8692,1.8699,1.8708,1.8712,1.8723,1.8725,1.8728,1.8729,1.8727,1.8727,1.873,1.8729,1.8731,1.8731,1.8731,1.8731,0,1.8611,1.8619,1.863,1.8642,1.8645,1.8652,1.8662,1.8668,1.8674,1.8684,1.8686,1.8695,1.8705,1.8712,1.8725,1.8728,1.8739,1.874,1.8736,1.8737,1.8741,1.8741,1.8756,1.8758,1.8749,1.8749,1.8749,0,1.8615,1.8622,1.8634,1.864,1.8646,1.8655,1.8661,1.8668,1.8675,1.8686,1.8691,1.8702,1.871,1.8726,1.8734,1.8744,1.8745,1.875,1.8746,1.8745,1.8745,1.8744,1.8745,1.875,1.875,1.875,1.875,0,1.8621,1.8625,1.8634,1.8645,1.8652,1.8661,1.8669,1.8674,1.8683,1.869,1.87,1.8707,1.8721,1.8731,1.8742,1.8748,1.875,1.8751,1.8753,1.8751,1.8748,1.8749,1.8737,1.8751,1.875,1.875,1.875,1.875,1.8625,1.8631,1.8641,1.8651,1.8659,1.8667,1.8674,1.8681,1.869,1.8702,1.8706,1.8717,1.8727,1.8742,1.8748,1.8757,1.8757,1.8759,1.876,1.876,1.876,1.8747,1.8759,1.8759,1.8759,1.8759,1.8759,0,1.8631,1.8638,1.8647,1.866,1.8668,1.8671,1.8681,1.8687,1.8697,1.8706,1.8715,1.8728,1.8738,1.8748,1.8758,1.8764,1.8765,1.8766,1.8766,1.8767,1.876,1.8757,1.8765,1.8765,1.8765,1.8765,1.8765,1.8765,1.8635,1.8646,1.8651,1.8666,1.8673,1.8685,1.869,1.8698,1.8706,1.872,1.8729,1.8735,1.8744,1.8756,1.8766,1.8768,1.8772,1.8773,1.8775,1.8768,1.8767,1.8767,1.8764,1.8774,1.8774,1.8782,1.8782,1.8782]},{"header":{"parameterUnit":"m.s-1","parameterCategory":1,"la1":30.2991,"la2":30.254,"lo1":-89.0895,"lo2":-89.0444,"dy":0.0017,"dx":0.0017,"nx":28,"ny":28,"refTime":"2026-02-01T09:00:00:Z","depth":0,"parameterNumber":3,"parameterNumberName":"V-component_of_WINDS"},"data":[0,0,0,0,0,0,0,0,0,0,0,0,0,0,0,0,0,0,0,0,0,0,0,0,0,0,0,0,0,0,0,0,0,0,0,0,0,0,0,0,0,0,0,0,0,0,0,0,0,0,0,0,0,0,0,0,0,0,-6.5997,-6.5999,0,-6.6218,-6.622,-6.6223,-6.6183,-6.6179,-6.6175,-6.6171,-6.6395,-6.6404,-6.6414,0,0,0,0,0,0,0,0,0,0,0,0,0,-6.5537,-6.5546,-6.5996,-6.5999,-6.6002,-6.6217,-6.622,-6.6223,-6.6184,-6.6179,-6.6174,-6.617,-6.6392,-6.6403,-6.6415,0,0,0,0,0,0,0,0,0,0,0,0,0,-6.5745,-6.5548,-6.5996,-6.6008,-6.6011,-6.6217,-6.622,-6.6224,-6.6185,-6.6179,-6.6173,-6.6167,-6.6388,-6.6402,-6.6416,-6.6622,0,0,-6.646,-6.6466,0,0,0,0,0,0,0,0,-6.5733,-6.5762,-6.6004,-6.6008,-6.6012,-6.6167,-6.614,-6.6357,-6.6186,-6.6119,-6.6171,-6.6165,-6.6324,-6.6343,-6.6397,-6.6632,-6.6642,-6.6461,-6.647,-6.6476,-6.648,0,0,0,0,0,0,0,-6.5719,-6.5752,-6.6084,-6.6007,-6.6012,-6.6002,-6.6025,-6.6181,-6.6251,-6.6124,-6.6122,-6.6149,-6.6325,-6.6383,-6.6402,-6.6645,-6.6461,-6.6474,-6.6483,-6.6488,-6.7061,-6.7068,0,0,0,0,0,0,-6.5701,-6.574,-6.6077,-6.609,-6.5855,-6.6015,-6.6041,-6.6123,-6.6249,-6.6263,-6.6154,-6.6146,-6.6362,-6.6385,-6.641,-6.666,-6.6476,-6.649,-6.6498,-6.7055,-6.7063,-6.707,0,0,0,0,0,0,-6.5691,-6.5732,-6.6068,-6.5915,-6.5957,-6.6029,-6.6122,-6.613,-6.6189,-6.6272,-6.6284,-6.6201,-6.6358,-6.6389,-6.657,-6.6667,-6.6496,-6.6509,-6.7047,-6.7057,-6.7066,-6.7161,0,0,0,0,0,0,-6.5678,-6.5728,-6.5808,-6.5917,-6.5965,-6.6226,-6.6128,-6.6139,-6.6214,-6.6207,-6.6319,-6.6332,-6.6356,-6.6549,-6.6584,-6.6684,-6.652,-6.7039,-6.7051,-6.7063,-6.715,-6.7173,-6.7193,0,0,0,0,0,-6.5662,-6.5825,-6.5812,-6.5853,-6.6067,-6.6231,-6.6259,-6.6283,-6.6222,-6.6303,-6.6356,-6.6329,-6.665,-6.6567,-6.6607,-6.6712,-6.7033,-6.7048,-6.7062,-6.714,-6.7169,-6.7193,0,0,0,0,0,0,-6.5724,-6.584,-6.5827,-6.603,-6.6121,-6.6224,-6.6326,-6.6313,-6.6422,-6.6411,-6.6435,-6.6461,-6.6645,-6.6696,-6.6602,-6.6919,-6.6833,-6.6856,-6.6878,-6.6906,-6.6928,-6.6911,-6.6532,0,0,0,0,0,-6.5762,-6.5887,-6.598,-6.615,-6.6197,-6.6254,-6.6327,-6.6338,-6.6433,-6.6471,-6.6537,-6.663,-6.6752,-6.6832,-6.6948,-6.7157,-6.7181,-6.7249,-6.727,-6.7288,-6.7308,-6.7423,-6.7454,-6.7119,-6.7118,-6.7118,0,0,-6.584,-6.5919,-6.5996,-6.6165,-6.6237,-6.6365,-6.6287,-6.6425,-6.6521,-6.6492,-6.6667,-6.6719,-6.6824,-6.7019,-6.7109,-6.7068,-6.7406,-6.7307,-6.732,-6.7331,-6.7441,-6.7473,-6.7501,-6.7129,-6.7127,-6.7125,0,0,-6.6049,-6.6121,-6.6271,-6.6345,-6.6456,-6.6493,-6.6529,-6.6635,-6.6668,-6.6844,-6.6826,-6.6938,-6.7148,-6.7224,-6.729,-6.7528,-6.7507,-6.7565,-6.7679,-6.779,-6.7816,-6.784,-6.7926,-6.7956,-6.7585,-6.7585,-6.7585,0,-6.6132,-6.6326,-6.6349,-6.6491,-6.6566,-6.6547,-6.6699,-6.6769,-6.6912,-6.6964,-6.6916,-6.718,-6.7249,-6.7462,-6.752,-6.7574,-6.7616,-6.7553,-6.7811,-6.7835,-6.7857,-6.7939,-6.7971,-6.7591,-6.7591,-6.759,-6.7589,0,-6.6423,-6.6558,-6.6665,-6.6805,-6.6892,-6.7038,-6.7083,-6.7168,-6.7172,-6.7214,-6.7393,-6.7476,-6.7609,-6.766,-6.7665,-6.7875,-6.7846,-6.7805,-6.7719,-6.7895,-6.7972,-6.8004,-6.76,-6.7598,-6.7596,-6.7595,0,0,-6.6677,-6.6829,-6.6868,-6.6932,-6.7053,-6.7157,-6.7301,-6.7433,-6.7506,-6.7605,-6.7727,-6.7905,-6.7868,-6.7942,-6.7955,-6.8053,-6.8237,-6.7999,-6.8002,-6.8041,-6.8474,-6.8505,-6.8541,-6.8224,-6.823,-6.8234,-6.8465,0,-6.6898,-6.7155,-6.7181,-6.7411,-6.7536,-6.7519,-6.7645,-6.7733,-6.7776,-6.7887,-6.7933,-6.8059,-6.8,-6.8045,-6.8141,-6.8194,-6.8324,-6.8178,-6.8337,-6.8343,-6.8312,-6.8582,-6.8615,-6.8829,-6.8496,-6.8501,-6.8505,0,-6.719,-6.7299,-6.7542,-6.7646,-6.7699,-6.7813,-6.7936,-6.8042,-6.8141,-6.8165,-6.8249,-6.8249,-6.8397,-6.8306,-6.8511,-6.8411,-6.8477,-6.8513,-6.8522,-6.8538,-6.8435,-6.8606,-6.8898,-6.893,-6.8552,-6.8549,-6.8545,0,-6.7352,-6.7559,-6.7732,-6.7786,-6.7912,-6.7992,-6.8048,-6.8141,-6.8218,-6.8326,-6.8376,-6.8499,-6.8566,-6.866,-6.8693,-6.8623,-6.8897,-6.8808,-6.8921,-6.8921,-6.898,-6.8976,-6.9288,-6.9022,-6.9021,-6.9021,-6.902,0,-6.7597,-6.7746,-6.7807,-6.7913,-6.8079,-6.8107,-6.8271,-6.8322,-6.8405,-6.8521,-6.8513,-6.8621,-6.8657,-6.8772,-6.8798,-6.8964,-6.8994,-6.9017,-6.9023,-6.9019,-6.9016,-6.9063,-6.905,-6.9029,-6.9027,-6.9026,-6.9024,0,-6.7806,-6.7853,-6.804,-6.8144,-6.8173,-6.8292,-6.838,-6.8482,-6.8523,-6.8669,-6.8705,-6.8769,-6.8903,-6.8945,-6.9106,-6.9124,-6.9318,-6.931,-6.9286,-6.9287,-6.9398,-6.9387,-6.9751,-6.9801,-6.9502,-6.9504,-6.9507,0,-6.796,-6.8074,-6.8191,-6.8268,-6.8328,-6.8452,-6.8532,-6.8563,-6.8646,-6.8767,-6.8855,-6.8988,-6.9096,-6.9311,-6.9371,-6.9494,-6.9489,-6.9609,-6.9508,-6.95,-6.9492,-6.9485,-6.9497,-6.9628,-6.9631,-6.9633,-6.9635,0,-6.8227,-6.8244,-6.836,-6.8485,-6.858,-6.868,-6.8775,-6.8838,-6.8883,-6.8977,-6.9115,-6.9199,-6.9364,-6.9496,-6.9622,-6.9678,-6.9665,-6.9667,-6.9699,-6.9697,-6.9679,-6.9691,-6.9338,-6.9658,-6.9656,-6.9654,-6.9653,-6.9652,-6.8414,-6.8515,-6.8614,-6.8743,-6.8818,-6.8908,-6.9009,-6.9063,-6.9179,-6.9317,-6.9328,-6.9477,-6.9572,-6.974,-6.9803,-6.9919,-6.9885,-6.9932,-6.9944,-6.9956,-6.9965,-6.966,-6.9942,-6.9941,-6.9941,-6.994,-6.994,0,-6.8681,-6.8744,-6.8863,-6.8997,-6.9099,-6.9078,-6.9183,-6.9269,-6.9401,-6.9492,-6.9599,-6.9757,-6.9885,-6.9956,-7.0084,-7.0163,-7.0161,-7.0196,-7.0191,-7.0204,-6.9988,-6.9948,-7.0196,-7.0196,-7.0196,-7.0196,-7.0196,-7.0196,-6.8833,-6.9004,-6.9033,-6.9241,-6.9302,-6.9449,-6.9511,-6.9593,-6.9666,-6.9844,-6.9951,-6.9996,-7.0079,-7.0213,-7.033,-7.0347,-7.0395,-7.0434,-7.0448,-7.0245,-7.0219,-7.0194,-7.0156,-7.0444,-7.0445,-7.0654,-7.0656,-7.0658]}]]